Flight Track Log - Related Links

Times and Time Zones

All times are in EDT time to prevent confusion due to time zone crossing. See the EGF2976 flight status page for this flight to view local times or setup timezone preferences in your user account.

Time Position Orientation Groundspeed Altitude Reporting Facility
EDT Latitude Longitude Course Direction KTS MPH feet Rate Location/Type
Sun 06:38:41 PM 41.9500 -87.9667 254° West 206 237 2,900  Level Chicago TRACON
Sun 06:39:42 PM 41.9333 -88.0500 255° West 244 281 4,800 1,786 Climbing Chicago TRACON
Sun 06:40:00 PM 41.8925 -88.2710 255° West  Level FlightAware Approximate
Sun 06:40:52 PM 41.9606 -88.1431 292° West 250 288 6,800  Level Chicago Center
Sun 06:41:00 PM 41.8541 -88.3897 242° Southwest  Level FlightAware Approximate
Sun 06:41:53 PM 41.9675 -88.2525 275° West 257 296 9,400  Level Chicago Center
Sun 06:42:00 PM 41.8265 -88.5142 254° West  Level FlightAware Approximate
Sun 06:42:55 PM 41.9428 -88.3494 251° West 273 314 11,000  Level Chicago Center
Sun 06:43:00 PM 41.7990 -88.6389 254° West  Level FlightAware Approximate
Sun 06:43:56 PM 41.9156 -88.4553 251° West 296 341 12,000  Level Chicago Center
Sun 06:44:57 PM 41.8858 -88.5686 251° West 319 367 13,300 1,317 Climbing Chicago Center
Sun 06:45:59 PM 41.8486 -88.6817 246° West 332 382 14,700 1,317 Climbing Chicago Center
Sun 06:47:00 PM 41.8019 -88.7897 240° Southwest 339 390 16,000 1,525 Climbing Chicago Center
Sun 06:48:01 PM 41.7447 -88.9181 239° Southwest 338 389 17,800 1,659 Climbing Chicago Center
Sun 06:49:03 PM 41.6994 -89.0258 241° Southwest 335 386 19,400 1,268 Climbing Chicago Center
Sun 06:50:04 PM 41.6550 -89.1378 242° Southwest 342 394 20,400 1,082 Climbing Chicago Center
Sun 06:51:05 PM 41.6311 -89.2644 256° West 354 407 21,600 1,171 Climbing Chicago Center
Sun 06:52:07 PM 41.6044 -89.3897 254° West 355 409 22,800 1,317 Climbing Chicago Center
Sun 06:53:08 PM 41.5778 -89.5133 254° West 349 402 24,300 1,574 Climbing Chicago Center
Sun 06:54:09 PM 41.5472 -89.6531 254° West 345 397 26,000 1,561 Climbing Chicago Center
Sun 06:55:11 PM 41.5206 -89.7733 254° West 341 392 27,500 1,366 Climbing Chicago Center
Sun 06:56:12 PM 41.4942 -89.8903 253° West 334 384 28,800 1,230 Climbing Chicago Center
Sun 06:57:13 PM 41.4667 -90.0081 253° West 334 384 30,000 1,073 Climbing Chicago Center
Sun 06:58:15 PM 41.4253 -90.1225 244° Southwest 351 404 31,000 976 Climbing Chicago Center
Sun 06:59:16 PM 41.3683 -90.2308 235° Southwest 361 415 32,000 984 Climbing Chicago Center
Sun 07:00:17 PM 41.3119 -90.3425 236° Southwest 365 420 33,000 976 Climbing Chicago Center
Sun 07:01:19 PM 41.2547 -90.4564 236° Southwest 371 427 34,000 1,073 Climbing Chicago Center
Sun 07:02:20 PM 41.1856 -90.5931 236° Southwest 373 429 35,200 984 Climbing Chicago Center
Sun 07:03:21 PM 41.1283 -90.7036 236° Southwest 368 423 36,000 390 Climbing Chicago Center
Sun 07:04:23 PM 41.0708 -90.8178 236° Southwest 370 426 36,000  Level Chicago Center
Sun 07:05:24 PM 41.0089 -90.9361 235° Southwest 383 441 36,000  Level Chicago Center
Sun 07:06:25 PM 40.9469 -91.0597 236° Southwest 398 458 36,000  Level Chicago Center
Sun 07:07:26 PM 40.8836 -91.1797 235° Southwest 400 460 36,000  Level Chicago Center
Sun 07:08:28 PM 40.8156 -91.3114 236° Southwest 402 463 36,000  Level Chicago Center
Sun 07:09:29 PM 40.7519 -91.4311 235° Southwest 403 464 36,000  Level Chicago Center
Sun 07:10:30 PM 40.6897 -91.5517 236° Southwest 402 463 36,000  Level Chicago Center
Sun 07:11:31 PM 40.6264 -91.6728 235° Southwest 404 465 36,000  Level Chicago Center
Sun 07:12:33 PM 40.5603 -91.7964 235° Southwest 412 474 36,000 -244 Level Chicago Center
Sun 07:13:34 PM 40.4819 -91.9444 235° Southwest 415 478 35,500 -689 Descending Chicago Center
Sun 07:14:35 PM 40.4178 -92.0653 235° Southwest 408 470 34,600 -927 Descending Chicago Center
Sun 07:15:37 PM 40.3500 -92.1908 235° Southwest 421 484 33,600 -976 Descending Chicago Center
Sun 07:16:38 PM 40.2803 -92.3217 235° Southwest 437 503 32,600 -787 Descending Chicago Center
Sun 07:17:39 PM 40.2083 -92.4525 234° Southwest 438 504 32,000 -295 Descending Chicago Center
Sun 07:18:40 PM 40.1361 -92.5867 235° Southwest 442 509 32,000  Level Chicago Center
Sun 07:19:42 PM 40.0803 -92.7283 243° Southwest 439 505 32,000 -780 Level Chicago Center
Sun 07:20:43 PM 40.0261 -92.8708 244° Southwest 439 505 30,400 -1,756 Descending Chicago Center
Sun 07:21:45 PM 39.9708 -93.0142 243° Southwest 443 510 28,400 -2,000 Descending Chicago Center
Sun 07:22:46 PM 39.9150 -93.1586 243° Southwest 449 517 26,300 -2,213 Descending Chicago Center
Sun 07:23:47 PM 39.8483 -93.3278 243° Southwest 441 507 23,900 -2,118 Descending Chicago Center
Sun 07:25:02 PM 39.7844 -93.4889 243° Southwest 429 494 21,500 -1,927 Descending Kansas City Center
Sun 07:26:04 PM 39.7311 -93.6169 242° Southwest 413 475 19,500 -2,049 Descending Kansas City Center
Sun 07:27:05 PM 39.6767 -93.7567 243° Southwest 395 455 17,300 -1,820 Descending Kansas City Center
Sun 07:28:06 PM 39.6303 -93.8750 243° Southwest 384 442 15,800 -1,475 Descending Kansas City Center
Sun 07:29:07 PM 39.5767 -93.9839 237° Southwest 373 429 14,300 -1,561 Descending Kansas City Center
Sun 07:30:09 PM 39.5122 -94.1078 236° Southwest 371 427 12,600 -1,122 Descending Kansas City Center
Sun 07:31:10 PM 39.4606 -94.2103 237° Southwest 357 411 12,000 -639 Descending Kansas City Center
Sun 07:32:11 PM 39.4081 -94.3122 236° Southwest 301 346 11,300 -829 Descending Kansas City Center
Sun 07:33:13 PM 39.3675 -94.3936 237° Southwest 283 326 10,300 -1,122 Descending Kansas City Center
Sun 07:34:14 PM 39.3278 -94.4714 237° Southwest 273 314 9,000 -1,328 Descending Kansas City Center
Sun 07:35:15 PM 39.2858 -94.5519 236° Southwest 245 282 7,600 -1,574 Descending Kansas City Center
Sun 07:36:16 PM 39.2400 -94.6011 220° Southwest 244 281 5,800 -1,659 Descending Kansas City Center
Sun 07:37:18 PM 39.1758 -94.6219 194° South 248 285 4,200 -1,366 Descending Kansas City Center
Sun 07:38:19 PM 39.1758 -94.7061 270° West 218 251 3,000 -984 Descending Kansas City Center
Sun 07:39:20 PM 39.2231 -94.7231 344° North 185 213 2,200 -780 Descending Kansas City Center
Sun 07:40:22 PM 39.2636 -94.7133 11° North 138 159 1,400 -537 Descending Kansas City Center
Sun 07:41:23 PM 39.3028 -94.7008 14° North 141 162 1,100 -295 Descending Kansas City Center

Login

Don't have an account? Register now (free) for customized features, flight alerts, and more!